Regional Weather Roundup
Issued by NWS Charleston, WV

Home | Current Version | Previous Version | Text Only | Print | Product List | Glossary Off
Versions: 1 2 3 4 5 6 7 8 9 10 11 12 13 14 15 16 17 18 19 20 21 22 23 24 25 26 27 28 29 30 31 32 33 34 35 36 37 38 39 40 41 42 43 44 45 46 47 48 49 50

000
ASUS41 KRLX 190510
RWRRLX
West Virginia Regional Weather Roundup
National Weather Service Charleston WV
1200 AM EST FRI DEC 19 2014

Note: "fair" indicates few or no clouds below 12,000 feet with no
significant weather and/or obstructions to visibility.

WVZ003-190600-
Northern Panhandle of West Virginia

CITY           SKY/WX    TMP DP  RH WIND       PRES   REMARKS
WHEELING       CLOUDY    27  21  78 W8        30.16S
$$

WVZ009-190600-
Northwest West Virginia

CITY           SKY/WX    TMP DP  RH WIND       PRES   REMARKS
PARKERSBURG    CLOUDY    29  21  72 W5        30.24S
$$

WVZ006-190600-
Western West Virginia

CITY           SKY/WX    TMP DP  RH WIND       PRES   REMARKS
HUNTINGTON     CLOUDY    30  22  72 CALM      30.22S
$$

WVZ015-190600-
West Central West Virginia

CITY           SKY/WX    TMP DP  RH WIND       PRES   REMARKS
CHARLESTON     CLOUDY    30  21  69 NW3       30.21S
$$

WVZ022-031-190600-
North Central West Virginia

CITY           SKY/WX    TMP DP  RH WIND       PRES   REMARKS
CLARKSBURG     CLOUDY    27  22  81 W6        30.18R
MORGANTOWN     CLOUDY    27  20  75 SW3       30.17S
$$

WVZ025-035-042-045-190600-
Southern West Virginia

CITY           SKY/WX    TMP DP  RH WIND       PRES   REMARKS
BECKLEY        MOCLDY    26  22  84 N7        30.11R
LOGAN          NOT AVBL
BLUEFIELD      CLOUDY    31  22  69 W7        30.10R
LEWISBURG      CLOUDY    31  23  72 SW5       30.10S
$$

WVZ047-190600-
Northern Mountains of West Virginia

CITY           SKY/WX    TMP DP  RH WIND       PRES   REMARKS
ELKINS         CLOUDY    27  23  85 CALM      30.13S
$$

WVZ052-190600-
Eastern Panhandle of West Virginia

CITY           SKY/WX    TMP DP  RH WIND       PRES   REMARKS
MARTINSBURG    CLOUDY    33  19  56 NW6       30.11S
PETERSBURG     CLOUDY    32  22  66 SE5       30.12S
$$


USA.gov is the U.S. government's official web portal to all federal, state and local government web resources and services.